Theta_e
296 297 298 299 300 300 301 301 301 302 305 308 310 313 314 316 316 317 317 318 318 318 319 319 319 320 320 321 321 322 322 323 324 324 324 324 324 324 324 324 324 325 325 325 325 325 325 324 324 324 324 324 325 325 326 327 327 327 327 327 327 328 328 328 327 327 327 327 327 327 327 326 326 326 326 326 326 325 325 326 327 328 328 328 328 327
295 296 296 297 298 300 301 300 300 300 301 302 304 307 310 312 313 315 316 317 317 317 318 318 319 319 319 319 319 320 320 321 322 322 322 322 323 323 323 323 324 324 325 325 325 325 324 324 324 323 323 323 324 324 325 326 326 327 327 327 328 328 328 328 328 327 327 327 327 327 327 327 327 327 326 326 325 325 325 326 327 328 329 329 328 327
294 294 294 295 296 297 298 299 300 300 300 300 301 302 303 306 308 311 313 314 315 316 317 317 317 318 318 318 318 318 319 319 319 320 320 320 321 321 321 322 322 323 323 323 324 324 324 323 323 323 323 323 323 323 323 324 325 325 326 327 327 327 327 328 328 327 327 327 327 327 327 327 327 328 327 327 326 325 325 325 327 328 329 329 328 328
292 293 293 294 294 294 295 296 297 298 299 300 300 300 300 302 303 305 308 310 312 313 315 315 316 317 317 317 317 318 318 318 318 318 318 319 319 319 319 320 320 321 321 322 322 323 323 323 323 322 322 322 322 322 322 322 323 324 324 325 325 326 326 326 327 327 327 327 327 327 327 326 327 328 328 327 326 325 324 325 325 326 327 328 328 328
292 292 292 292 293 293 294 294 295 296 297 298 299 300 300 300 301 302 303 305 307 309 312 313 314 315 316 316 316 317 317 317 317 317 318 318 318 318 318 318 319 319 320 320 321 322 322 322 322 322 322 322 321 321 322 322 322 323 323 323 324 324 324 324 325 325 326 326 327 327 327 326 327 327 327 327 326 325 324 325 325 325 326 326 327 327
291 291 291 291 292 292 293 293 293 294 295 296 297 298 299 299 300 300 300 301 303 305 307 309 311 313 314 315 315 316 316 316 316 317 317 317 317 317 318 318 318 319 319 320 320 321 321 322 322 322 322 322 322 321 321 322 322 322 322 322 322 323 323 323 323 323 324 325 325 326 326 326 326 326 327 326 326 325 325 325 325 325 325 325 325 326
291 291 291 291 291 292 292 292 293 293 293 294 295 296 297 297 298 299 299 299 300 301 302 304 307 309 311 313 314 314 315 315 315 316 316 316 317 317 317 318 318 318 319 319 319 320 320 321 321 322 322 322 322 322 322 322 322 322 322 322 322 322 322 322 322 322 322 323 323 324 324 325 325 325 326 326 326 326 325 325 325 325 325 325 325 325
290 290 291 291 291 291 291 292 292 292 292 293 293 294 294 295 296 297 298 298 299 299 300 301 303 305 307 309 311 312 313 314 314 315 315 315 316 316 316 317 317 318 318 318 319 319 319 320 320 321 321 322 322 322 322 322 322 322 322 321 321 321 321 322 322 322 322 322 322 322 323 323 324 324 325 326 326 326 326 325 325 325 325 325 326 326
289 290 290 290 290 291 291 291 291 292 292 292 292 292 293 293 294 295 296 297 298 298 299 299 300 301 303 305 307 309 311 312 313 313 314 314 315 315 315 316 316 317 317 318 318 318 319 319 319 320 321 321 321 322 322 322 322 322 321 321 321 321 321 321 321 321 321 321 322 322 322 322 323 323 324 324 325 326 326 326 325 325 325 326 326 326
289 289 289 290 290 290 290 290 291 291 291 291 291 292 292 292 293 293 294 295 296 296 297 298 298 299 300 301 303 305 307 309 310 311 312 313 313 314 314 315 315 316 316 317 317 317 318 318 319 320 320 321 321 321 321 322 321 321 321 321 321 321 321 321 321 321 321 321 321 322 322 322 322 322 322 323 324 325 326 326 326 326 325 326 326 326
289 289 289 289 290 290 290 290 290 290 291 291 291 291 292 292 292 293 293 293 294 294 295 296 296 297 298 299 300 301 303 305 307 309 310 311 312 312 313 313 314 315 315 316 316 317 317 317 318 319 319 320 321 321 321 321 321 321 321 321 321 321 321 320 320 321 320 321 321 321 321 321 321 321 321 321 322 324 325 326 326 326 326 326 326 326
289 289 289 289 289 289 289 289 290 290 290 290 291 291 291 292 292 293 293 292 292 292 293 294 295 296 297 297 298 299 299 301 303 305 307 309 310 311 312 312 313 313 314 315 315 316 316 317 317 318 318 319 319 320 320 321 321 321 321 321 321 321 321 321 320 320 320 321 320 321 321 321 321 321 321 321 322 323 324 325 326 326 326 326 326 326
288 289 289 289 289 289 289 289 289 290 290 290 290 291 291 291 292 292 292 292 291 291 292 292 293 294 295 296 296 297 297 298 299 301 303 305 307 309 310 311 312 312 313 314 314 315 316 316 316 317 317 318 318 318 319 319 319 320 320 320 320 320 320 320 320 320 320 320 321 321 321 321 321 321 321 321 322 323 324 325 325 326 326 326 326 326
288 288 288 289 289 289 289 289 289 289 289 289 290 290 290 290 291 291 292 292 291 291 291 292 292 293 293 294 295 295 296 297 298 299 300 302 304 306 307 309 310 311 312 312 313 314 314 315 316 316 316 317 317 317 318 318 318 318 319 319 319 319 319 320 320 320 320 320 320 321 321 321 321 321 322 322 322 323 324 324 325 325 326 326 326 326
287 287 287 288 288 288 288 288 288 288 288 289 289 289 289 289 290 291 291 292 292 292 292 292 292 292 292 292 293 294 295 296 296 297 298 300 301 302 304 306 307 309 310 311 312 312 313 313 314 315 316 316 316 317 317 317 317 318 318 318 318 319 319 319 319 320 320 320 321 321 321 321 321 322 322 322 323 323 324 324 324 325 325 325 325 325
286 286 286 287 287 288 288 288 288 288 288 288 288 289 289 289 290 290 291 292 293 293 294 294 294 294 293 292 292 292 293 294 295 296 297 298 299 300 301 302 304 306 308 309 310 311 311 312 313 313 314 315 315 316 316 317 317 317 317 318 318 318 318 319 319 320 320 321 321 321 322 322 322 322 322 323 323 323 323 324 324 324 324 325 325 325
285 286 286 286 286 287 287 287 288 288 288 288 288 288 288 289 289 290 291 292 293 294 295 296 296 296 294 292 292 291 292 292 293 293 294 295 296 297 298 299 301 303 304 306 308 309 310 310 311 311 312 313 314 314 315 316 316 316 317 317 317 318 318 318 319 319 320 321 321 321 322 322 322 322 322 322 322 323 323 323 323 324 324 324 324 324
285 285 285 286 286 286 286 287 287 287 287 288 288 288 288 288 289 289 290 291 293 294 295 296 296 295 295 293 292 291 291 291 291 292 292 293 294 295 296 297 298 300 301 303 305 306 308 309 309 310 311 311 312 313 313 314 315 315 316 316 317 317 318 318 318 319 319 320 320 321 321 321 321 321 322 322 322 322 322 322 323 323 323 323 323 323
286 286 286 286 286 286 286 286 286 287 287 287 287 288 288 288 288 289 289 290 291 292 293 293 293 294 294 294 293 292 292 292 292 292 292 292 293 293 295 295 296 297 299 300 302 304 305 307 308 309 309 310 310 311 312 312 313 314 315 315 316 316 316 317 317 318 318 319 319 320 320 320 320 321 321 321 321 321 321 321 322 322 322 323 323 323
287 286 286 286 286 286 286 286 286 286 286 287 287 287 287 288 288 288 288 289 289 289 290 290 291 293 295 295 294 294 294 294 294 293 292 292 292 292 293 293 294 295 296 298 299 301 302 304 306 307 308 309 309 310 310 311 312 312 313 314 314 315 315 316 316 316 317 317 318 318 319 319 319 320 320 320 320 321 321 321 321 321 321 322 322 322
287 287 286 286 286 286 286 286 286 286 286 286 286 287 287 287 288 288 288 288 289 289 290 291 292 294 295 295 295 295 296 296 296 295 294 292 291 290 291 292 293 293 294 295 297 298 299 301 303 305 306 307 308 309 309 310 310 311 312 312 313 313 314 314 315 315 315 316 316 317 317 318 318 319 319 319 319 320 320 320 320 320 320 321 321 321
287 287 286 286 286 286 286 286 286 286 285 286 286 287 287 287 288 288 288 289 289 290 291 292 293 293 294 294 294 295 295 296 296 295 294 293 291 290 290 291 291 292 293 294 295 296 297 298 300 302 304 306 307 308 308 308 309 309 310 311 311 312 313 313 314 314 314 315 315 315 316 316 317 317 318 318 318 319 319 319 319 319 319 320 320 320
286 286 286 287 287 286 286 286 286 286 286 286 286 287 287 288 288 288 289 289 289 290 290 290 291 291 291 291 292 292 292 293 293 293 293 293 291 290 290 290 290 291 292 292 293 294 295 296 297 299 301 303 305 306 307 308 308 308 309 309 310 311 311 312 312 313 313 313 314 314 315 315 315 316 317 317 317 318 318 318 318 318 319 319 319 320
286 286 287 287 287 287 287 287 287 287 286 287 287 287 287 287 288 288 289 288 288 288 288 288 289 289 289 289 290 290 290 290 291 291 291 291 291 290 289 289 290 290 291 291 292 293 294 294 296 297 299 301 303 305 306 307 307 307 308 308 309 310 310 311 311 312 312 313 313 313 313 314 314 315 315 316 316 317 317 317 318 318 319 319 319 320
286 287 287 288 288 288 288 288 288 287 287 287 288 288 288 288 288 288 287 287 287 287 287 288 288 288 288 289 289 289 289 289 290 290 291 291 291 290 290 290 290 291 291 291 292 292 293 294 295 296 297 299 301 303 305 306 306 307 307 308 308 309 309 310 310 311 311 312 312 312 313 313 313 314 314 315 316 316 317 317 317 318 318 319 320 320
287 287 288 288 289 289 289 289 289 289 289 289 289 289 289 288 288 288 287 287 287 287 288 288 288 288 288 289 289 289 289 289 290 291 291 292 292 292 291 291 291 291 291 291 291 292 292 293 294 295 296 298 300 301 303 304 305 306 306 307 307 308 308 309 310 310 311 311 311 312 312 312 313 313 314 314 315 315 316 317 317 317 318 318 319 320
287 288 288 289 289 289 290 290 290 290 290 290 290 290 290 290 289 289 288 288 288 288 288 289 289 289 289 289 289 289 289 290 290 291 292 293 294 293 293 293 292 292 292 291 291 291 292 292 293 294 295 296 298 300 301 303 304 305 306 306 307 307 308 308 309 309 310 310 311 311 312 312 312 313 313 314 314 315 316 316 316 317 317 317 318 318
287 287 288 288 289 289 289 290 290 290 290 290 290 290 291 291 290 290 290 289 289 289 289 289 290 290 290 290 290 289 290 290 290 291 292 293 294 294 294 294 293 293 293 292 292 292 292 292 293 294 295 296 297 298 300 301 303 304 305 305 306 306 307 308 308 309 309 310 310 311 311 311 312 312 313 313 314 314 315 315 316 316 316 316 317 317
286 286 287 287 288 288 289 289 289 289 290 290 290 290 290 290 290 290 289 289 289 290 290 290 290 290 290 290 290 290 290 290 290 291 292 293 293 294 294 294 294 294 294 294 294 293 293 293 293 294 295 295 296 297 299 300 302 303 304 305 305 306 306 307 308 308 309 309 310 310 311 311 312 312 312 313 314 314 314 315 315 315 315 315 316 316
286 286 286 286 287 287 288 288 288 289 289 289 289 290 290 290 290 289 289 289 290 290 290 290 290 290 290 290 290 291 291 290 290 291 292 293 293 294 295 295 295 295 295 296 295 295 295 294 294 294 295 295 296 297 298 299 301 302 303 304 304 305 306 306 307 307 308 309 309 310 310 311 311 312 312 313 313 314 314 314 314 314 314 314 315 315
286 286 286 286 286 286 287 287 288 288 288 288 289 289 289 289 289 289 289 289 290 290 290 291 291 291 291 291 291 291 291 291 291 291 292 293 294 294 295 296 296 296 296 296 296 296 296 295 295 295 294 295 295 296 297 299 300 301 302 303 304 304 305 306 306 307 308 308 309 309 310 310 311 311 312 312 313 313 313 313 313 314 314 314 314 315
286 286 286 286 286 286 286 287 287 287 287 288 288 288 288 289 289 289 289 289 290 290 290 291 291 291 291 291 291 291 291 291 291 291 292 292 293 294 295 295 296 296 296 296 297 297 296 296 295 295 294 294 294 295 296 297 299 300 301 302 303 304 304 305 306 306 307 308 308 309 309 310 310 310 311 311 312 312 312 313 313 313 313 313 314 314
287 287 287 287 287 287 287 287 287 287 287 287 288 288 288 288 288 288 288 289 289 290 290 291 291 291 291 291 291 291 291 291 291 291 291 292 293 294 294 294 295 295 296 296 297 297 297 296 295 295 294 293 293 294 295 296 298 299 300 301 302 303 304 304 305 306 306 307 308 308 309 309 309 309 310 310 310 311 311 311 312 312 313 313 314 314
287 287 287 287 286 287 287 287 287 287 287 287 287 287 288 288 288 288 288 288 289 289 290 290 291 292 292 292 292 292 292 292 291 291 292 292 293 293 293 294 294 295 295 296 297 297 297 296 296 295 294 293 293 293 294 295 296 298 299 300 302 302 303 304 304 305 306 306 307 308 308 308 308 308 308 308 309 309 310 310 311 312 312 313 313 314
287 286 286 286 286 286 286 286 287 287 287 287 287 287 287 287 287 287 287 288 288 288 289 290 290 291 292 292 292 292 292 292 292 292 293 293 293 293 293 294 294 294 296 296 297 297 297 296 296 295 295 294 294 293 293 294 295 297 298 300 301 302 302 303 304 304 305 305 306 307 307 307 307 307 307 307 308 308 309 310 310 311 312 312 313 314
286 286 286 286 286 286 286 286 287 287 287 287 287 287 287 287 287 287 287 287 287 288 288 289 289 290 291 291 292 292 292 292 292 292 293 293 293 293 293 293 294 294 295 296 297 298 297 297 296 296 296 295 295 294 293 294 294 296 297 298 300 300 301 302 303 303 304 305 305 306 306 307 307 307 307 307 307 308 308 309 310 310 311 311 312 313
286 286 287 286 287 287 287 287 287 287 287 287 287 287 287 287 287 287 287 287 287 287 287 288 289 289 290 290 291 291 292 292 292 292 292 292 292 292 292 292 293 293 294 295 297 298 298 297 297 296 296 296 295 295 294 294 294 295 296 297 298 299 300 301 302 303 303 304 304 305 305 306 306 306 306 306 307 307 308 308 309 309 309 310 310 311
287 287 287 287 287 287 287 287 287 287 287 287 287 287 287 287 287 287 288 288 288 288 288 288 288 289 289 290 290 290 291 291 291 291 291 291 291 291 291 291 292 292 293 294 295 297 298 298 297 297 296 296 295 295 295 294 294 294 295 296 297 298 299 300 301 302 302 303 303 304 304 305 305 306 306 306 306 306 307 308 308 308 308 309 309 309
287 287 287 287 287 287 287 287 287 287 287 287 287 288 288 288 288 288 288 288 288 288 288 288 288 289 289 289 289 290 290 290 290 291 291 291 291 291 291 291 291 291 291 292 293 294 296 297 298 297 297 296 296 296 295 295 295 295 295 295 296 297 298 299 300 301 302 302 303 303 303 304 304 305 305 305 305 306 306 307 307 307 307 308 308 308
287 287 287 287 287 287 287 287 287 287 287 287 287 288 288 288 288 288 289 289 289 289 289 289 289 289 289 289 289 289 290 290 290 290 290 290 290 291 291 291 291 291 291 291 291 292 294 296 297 297 297 297 297 296 296 296 296 295 295 295 295 296 297 298 299 300 301 301 302 302 303 303 303 304 304 305 305 305 305 306 306 307 307 307 307 307
287 287 287 286 286 286 286 286 286 287 287 287 287 287 288 288 289 289 289 289 290 289 289 289 289 289 289 289 289 289 289 289 289 289 290 290 290 291 291 291 291 291 291 291 291 291 292 294 295 296 297 298 297 297 297 296 296 296 296 296 295 295 296 297 298 299 300 300 301 302 302 302 302 303 303 304 304 305 305 305 305 306 306 307 307 307
287 287 287 287 287 286 286 286 286 286 286 286 287 287 287 288 288 289 289 290 290 290 289 289 289 289 289 289 289 289 289 289 289 289 289 290 290 290 290 291 291 291 291 291 291 291 291 292 293 295 296 297 298 298 297 297 297 297 296 296 296 296 296 296 297 298 299 300 300 301 301 302 302 302 302 303 303 304 304 304 305 305 305 306 306 306
287 287 287 287 287 287 287 287 287 287 287 287 287 287 287 287 287 288 288 289 289 289 288 288 288 289 290 289 289 289 289 289 289 290 291 291 291 291 291 291 291 291 291 291 291 291 291 292 292 293 294 295 297 298 298 298 297 297 297 296 296 296 296 296 296 297 298 299 299 300 301 301 301 301 302 302 302 303 303 304 304 304 305 305 305 306
287 287 287 287 288 288 288 287 287 287 287 287 287 287 287 287 287 287 288 288 288 288 288 288 289 290 290 290 290 290 290 290 291 291 292 292 292 292 292 292 292 292 292 292 292 292 292 292 292 292 293 294 295 296 297 298 298 297 297 297 297 296 296 296 296 296 297 298 299 299 300 300 301 301 301 301 302 302 303 303 303 304 304 304 304 305
287 287 287 287 288 288 288 288 288 288 287 287 287 287 287 287 287 287 287 287 288 288 288 288 289 290 291 291 291 291 291 291 291 291 291 291 292 292 292 293 293 293 292 292 292 292 292 292 292 292 293 293 295 296 298 298 297 297 297 297 296 296 296 296 296 296 297 297 298 298 299 299 300 300 301 301 301 301 302 302 303 303 303 304 304 304
286 286 287 287 287 288 288 288 288 288 287 287 287 286 286 286 286 286 287 287 287 288 287 288 288 289 289 289 289 289 290 290 290 290 290 290 290 290 291 292 292 293 293 293 292 292 292 292 292 292 292 293 294 296 297 297 297 297 297 297 296 296 296 296 296 296 296 297 297 297 298 298 299 300 300 300 300 301 301 301 302 302 302 303 303 303
286 286 286 286 286 286 286 286 287 287 287 287 286 286 286 286 286 286 286 287 287 287 287 287 288 288 288 288 288 288 288 288 288 288 288 288 288 289 289 290 291 292 293 293 293 293 292 292 291 291 292 292 294 295 296 297 297 297 297 296 296 295 296 296 296 296 296 296 297 297 297 298 298 299 299 299 300 300 301 301 301 301 301 302 302 302
285 285 285 285 286 286 286 286 286 286 286 286 286 286 286 286 286 286 286 286 287 287 287 287 287 287 287 287 287 287 287 287 287 287 287 287 287 288 288 289 290 291 292 293 293 293 293 292 292 291 291 292 293 294 295 295 296 296 296 296 295 295 296 296 296 296 296 296 296 296 297 297 298 298 298 299 299 300 300 300 300 301 301 301 301 301
285 285 285 285 285 285 286 286 286 286 286 286 286 286 286 286 286 286 286 286 286 286 287 287 287 287 287 287 287 287 286 287 287 287 287 287 287 287 287 288 289 290 291 291 292 293 293 293 292 292 292 291 292 292 293 294 295 295 295 295 296 296 296 296 296 296 296 296 296 296 297 297 297 297 297 298 298 299 299 300 300 300 300 301 301 301
285 285 285 285 285 285 285 286 286 286 286 286 286 286 286 286 286 286 286 286 286 286 286 286 286 286 286 286 286 286 286 286 286 286 286 286 286 287 287 288 288 289 290 290 291 292 292 293 293 292 292 292 292 292 292 293 294 294 295 296 296 296 297 297 296 296 296 296 296 296 297 297 297 297 297 297 298 298 298 299 299 300 300 300 300 300
285 285 285 285 285 286 286 286 286 286 286 286 286 286 286 287 287 287 286 286 286 286 286 286 286 286 286 286 286 286 286 286 286 286 286 286 286 286 287 287 288 289 290 290 291 291 292 292 292 292 292 292 292 292 292 292 293 294 296 296 296 297 297 297 296 296 296 296 296 296 296 297 296 297 297 297 297 297 298 298 299 299 300 300 300 300
Wind_Speed
20 19 19 18 18 17 17 17 18 18 19 19 19 20 20 20 20 20 20 21 22 22 23 22 21 20 19 19 19 20 23 26 29 33 37 40 42 44 44 44 43 42 40 38 37 36 35 34 33 32 31 30 29 29 30 32 34 35 36 36 35 35 36 35 35 35 35 35 35 35 35 35 35 35 36 37 38 38 39 39 40 42 43 43 42 41
21 20 20 19 19 19 18 17 18 18 18 17 18 18 19 19 20 20 21 21 22 22 23 23 23 23 22 21 21 20 21 22 24 27 30 34 37 40 43 45 45 45 44 43 41 40 40 39 38 37 36 35 34 33 32 32 32 33 34 35 35 36 36 36 36 36 36 36 36 36 36 36 37 37 37 37 38 38 38 38 40 42 43 44 42 40
23 22 22 21 20 20 20 19 19 19 18 18 17 17 18 18 19 20 21 21 22 23 23 24 24 24 24 24 23 23 22 22 23 24 26 28 31 34 37 40 42 43 44 44 44 43 43 42 42 41 41 40 39 38 37 35 34 34 34 35 35 36 36 36 36 36 36 36 37 37 38 38 39 39 39 39 39 39 39 39 40 42 43 43 41 40
26 26 25 23 22 21 21 20 20 20 20 19 19 18 17 17 18 18 20 21 22 22 23 24 24 25 25 25 25 25 24 24 24 24 25 26 28 31 33 35 38 39 41 43 44 44 45 45 45 45 44 44 44 42 41 40 39 38 37 36 36 36 36 36 36 36 36 36 37 37 38 39 40 41 41 41 41 41 42 42 42 43 43 43 42 40
30 30 29 28 26 25 23 22 21 21 21 21 20 20 19 19 18 18 18 19 20 21 22 23 24 24 25 26 26 26 26 26 25 25 25 25 26 28 30 32 34 36 38 40 42 44 46 47 48 48 47 48 48 47 45 44 44 43 42 41 40 39 38 37 37 37 37 37 37 38 38 39 40 41 41 42 43 44 45 45 45 44 44 44 44 43
31 31 31 31 31 30 28 26 24 23 22 22 22 22 21 21 20 19 19 19 19 20 20 21 22 23 24 25 26 26 27 27 27 26 26 25 26 26 27 29 31 33 35 37 40 42 45 47 49 50 50 50 51 50 49 48 48 47 47 46 46 45 44 43 42 41 40 39 39 39 39 39 39 40 41 43 45 46 48 48 47 47 46 46 46 45
31 31 31 32 32 33 33 31 29 27 25 24 23 23 23 23 22 22 21 21 20 20 20 21 21 22 23 24 25 26 26 27 27 27 27 26 26 26 26 27 28 30 32 34 37 40 42 45 48 50 52 52 52 52 52 52 52 52 52 51 51 51 50 50 49 47 46 44 43 42 41 41 40 40 41 43 45 48 50 50 49 48 47 47 47 47
30 31 31 31 32 33 33 33 32 30 29 27 27 26 25 25 24 23 23 22 22 22 22 21 21 21 21 22 23 24 25 26 26 27 27 26 26 26 26 26 27 28 29 31 34 36 39 42 45 48 50 52 53 54 54 55 55 56 56 56 56 55 55 55 55 54 53 51 49 47 46 44 43 42 42 43 45 48 50 51 50 49 47 47 48 47
29 30 31 31 31 32 32 33 32 31 31 31 30 29 28 27 26 25 25 24 24 24 23 23 22 22 22 22 22 23 24 25 25 26 26 26 26 26 26 26 26 26 27 28 30 33 35 38 42 45 48 51 53 55 56 57 58 59 60 60 60 59 59 59 59 58 58 57 55 53 51 49 47 45 44 44 45 47 49 50 50 48 47 47 48 47
28 28 29 30 30 30 31 32 32 32 32 32 32 31 30 29 28 28 27 26 26 25 25 25 24 24 23 22 22 22 23 24 24 25 25 26 26 26 27 27 27 26 26 27 28 29 32 34 38 41 45 49 52 55 58 59 61 62 63 63 63 63 62 62 61 61 60 60 59 58 56 54 52 50 48 46 46 47 48 49 49 48 48 48 48 47
28 28 29 29 30 30 30 30 31 32 31 31 31 31 30 29 29 29 28 28 28 27 26 26 26 26 25 25 24 23 23 23 24 24 24 25 25 26 27 27 27 27 27 27 27 28 29 31 33 37 41 45 49 53 57 60 62 63 64 65 65 65 64 64 63 63 62 61 60 59 58 57 56 54 52 50 48 48 49 49 49 49 49 49 48 47
27 28 28 29 30 30 30 30 30 31 30 29 29 29 29 28 28 28 29 31 31 30 29 29 29 28 28 27 26 26 25 25 25 25 24 25 25 25 26 27 27 28 28 29 29 29 28 29 30 32 35 38 43 47 52 56 59 61 63 64 65 65 65 65 65 65 65 64 62 60 57 56 56 55 54 52 51 50 49 50 50 50 50 50 48 47
25 26 27 28 29 29 29 30 30 30 30 29 27 27 28 28 28 29 29 32 33 33 32 31 30 30 29 28 28 28 27 27 26 26 25 25 25 25 25 26 27 28 28 29 29 29 29 29 29 30 31 33 36 39 43 47 51 55 58 60 62 63 63 64 64 64 65 66 65 62 58 55 54 53 53 53 52 51 51 51 51 51 50 49 48 47
24 25 26 27 28 29 29 29 29 30 29 29 28 28 29 29 29 29 29 31 33 33 33 32 31 31 30 29 28 28 28 28 28 27 26 26 25 25 25 25 26 27 27 28 29 29 30 30 30 30 30 31 32 33 36 39 42 46 49 52 55 57 59 60 61 61 62 63 63 62 58 54 52 52 52 52 52 51 51 52 53 52 51 49 48 47
23 24 25 26 27 28 28 28 29 29 29 29 29 29 30 30 29 28 28 29 31 32 33 33 33 33 32 30 29 29 29 29 29 28 28 27 26 25 25 26 26 26 27 27 27 28 29 29 30 31 31 31 31 32 32 33 35 38 41 44 47 50 52 54 55 56 57 58 58 58 56 53 52 51 51 51 51 51 51 52 53 54 53 52 50 49
24 24 25 26 26 27 27 27 28 29 30 30 30 30 30 29 29 28 28 28 29 30 30 31 33 34 35 33 31 30 29 29 29 30 30 29 28 27 26 27 27 27 27 26 26 27 27 28 29 30 31 32 32 32 32 32 33 34 35 37 40 43 45 48 49 51 51 52 52 52 52 51 51 50 50 50 50 50 50 51 53 54 55 55 54 54
24 24 25 26 26 26 26 26 26 28 29 30 30 29 29 29 28 28 27 26 26 26 27 27 29 31 34 36 35 33 31 30 30 31 32 32 31 29 28 28 29 29 28 27 27 26 26 26 27 28 30 31 32 33 33 33 33 33 34 35 36 37 39 42 44 46 47 48 49 49 49 49 49 49 49 49 49 49 50 50 51 52 54 55 56 57
25 25 25 26 27 26 26 25 25 26 27 28 29 29 29 29 28 27 26 26 25 25 26 26 27 29 31 33 35 35 33 31 31 33 33 34 33 31 30 29 30 30 30 29 27 26 25 25 26 26 27 29 30 31 33 34 34 35 35 35 35 36 37 38 39 41 43 45 46 47 48 49 49 49 49 49 49 49 49 50 50 51 52 53 55 56
27 26 26 27 27 27 26 26 25 25 26 27 28 29 29 29 29 28 28 27 27 27 28 29 30 30 31 32 34 35 34 31 31 32 33 34 34 33 31 31 31 31 31 30 29 27 26 25 25 25 26 27 28 29 31 33 34 35 36 36 36 37 37 37 38 39 40 42 43 45 47 48 49 49 49 50 50 50 50 51 51 52 52 53 54 55
28 28 27 27 27 27 28 27 25 24 24 25 26 28 29 30 30 30 31 30 30 30 30 30 31 30 29 30 32 33 32 30 29 30 33 35 36 35 33 33 33 33 33 32 30 29 27 26 26 25 25 25 26 27 28 30 32 33 35 36 36 37 37 38 38 39 39 40 41 43 45 46 48 49 50 51 51 51 52 52 52 53 53 54 55 55
29 30 28 27 27 28 29 28 26 25 24 24 26 27 29 29 30 31 31 31 31 30 30 29 29 28 28 29 29 29 28 26 27 30 33 36 38 38 36 35 35 35 35 34 32 30 29 29 27 26 25 25 25 25 26 28 29 31 32 34 35 36 37 37 38 38 39 39 40 41 42 43 45 47 48 50 51 51 52 52 53 53 54 54 55 55
29 30 29 27 26 27 29 28 27 25 24 24 25 27 28 28 29 30 30 30 30 29 29 28 29 29 30 30 30 30 28 27 27 29 32 36 39 40 37 36 36 36 37 36 34 32 31 30 30 28 27 26 25 25 25 26 27 29 30 31 33 34 35 36 36 37 38 38 38 39 39 40 41 42 44 46 47 49 50 50 51 52 52 52 53 54
27 28 27 26 26 26 27 27 26 25 25 24 25 26 26 27 28 29 30 30 30 31 32 32 33 34 35 36 36 35 33 32 32 32 33 36 40 41 39 37 36 37 38 37 35 33 32 32 31 30 29 28 26 26 25 25 26 27 28 29 31 32 33 34 35 35 36 37 37 37 37 38 38 39 40 42 43 45 46 47 48 48 49 49 50 51
26 26 26 25 25 25 25 25 26 25 25 25 25 25 26 27 28 30 30 31 32 34 35 36 37 38 39 39 38 38 37 36 34 33 34 37 39 40 39 37 37 37 38 37 35 33 33 33 32 32 31 29 28 27 26 25 25 26 27 28 29 30 31 32 33 34 35 35 36 36 36 36 37 37 38 39 40 41 43 44 45 45 46 47 48 49
27 26 26 25 25 25 25 25 25 25 25 25 25 26 27 28 29 31 32 33 33 34 35 36 38 39 40 39 38 39 39 37 34 32 32 34 37 39 38 36 35 36 37 36 34 33 33 33 33 32 31 30 29 28 27 26 25 25 26 27 28 29 30 31 32 33 33 34 34 35 35 35 35 36 36 37 38 40 41 42 43 44 45 45 46 47
26 26 26 25 25 25 25 25 25 25 25 25 26 27 27 28 30 31 32 32 32 32 33 35 37 38 38 37 37 38 36 33 30 29 28 29 32 35 36 35 34 34 36 36 34 33 33 34 33 32 31 31 30 29 28 27 26 25 26 26 27 28 29 30 31 32 32 33 33 34 34 34 35 35 36 36 37 39 40 41 42 43 44 45 45 45
25 24 25 25 25 26 26 26 27 26 26 26 27 27 27 28 29 31 32 31 30 30 31 33 35 35 35 35 36 36 34 31 29 28 26 25 28 32 34 34 33 33 35 35 35 34 34 34 33 32 31 31 30 29 28 28 27 26 26 26 27 27 28 29 30 30 31 32 32 33 33 34 34 34 35 36 37 38 39 40 41 42 43 44 44 44
25 24 24 24 25 25 26 27 27 27 27 27 27 26 26 27 29 31 33 31 28 28 30 32 32 31 30 32 34 34 33 32 31 28 24 24 28 32 33 32 31 32 33 34 34 34 33 34 33 33 32 31 30 29 29 28 28 27 27 26 27 27 27 28 29 29 30 31 31 32 33 33 33 34 34 35 36 37 38 39 40 40 41 41 41 41
27 26 26 26 26 26 26 26 26 27 27 27 26 26 25 26 29 31 32 30 28 29 31 31 30 29 29 31 32 33 34 34 32 28 23 24 29 32 32 29 29 30 30 31 32 33 33 33 33 32 31 30 30 29 28 28 27 27 26 26 26 27 27 27 27 28 29 29 30 31 32 32 33 33 33 34 35 36 37 37 37 37 36 36 36 36
30 30 29 29 29 28 27 26 26 27 27 27 26 26 25 26 28 30 30 29 29 30 32 31 29 28 28 29 29 30 31 32 29 25 21 24 28 30 28 27 27 27 26 27 29 31 33 33 32 31 31 30 30 29 28 27 26 26 26 25 25 26 26 26 26 27 27 28 29 30 31 31 32 32 33 33 34 34 35 35 34 33 32 31 31 31
33 32 32 32 31 30 29 29 28 28 28 28 27 26 26 26 27 28 28 28 29 31 32 31 30 30 28 27 26 25 26 27 24 21 19 23 27 28 26 26 27 27 25 24 25 27 28 29 30 31 31 31 30 29 28 27 26 25 25 25 25 25 25 25 25 26 26 27 27 28 29 30 30 31 31 32 32 32 32 32 31 30 28 28 27 28
33 33 33 32 32 31 30 30 30 29 28 28 28 27 27 27 27 27 28 28 29 31 32 32 32 31 30 29 29 28 27 26 24 21 20 22 25 27 25 26 27 28 26 25 26 27 26 25 28 32 33 32 31 30 28 27 26 25 25 24 24 24 23 23 24 24 25 26 26 27 27 28 28 29 29 29 29 29 29 28 28 28 27 27 27 28
32 32 32 32 32 31 31 31 30 29 29 28 28 28 27 27 27 27 28 28 29 30 31 32 32 32 32 32 33 32 31 30 28 26 23 24 25 26 26 27 28 29 28 27 28 30 30 29 31 34 35 35 33 31 29 27 25 25 24 24 24 23 23 22 23 23 24 24 25 25 26 26 26 25 25 24 24 24 24 25 26 27 29 30 30 30
31 31 32 32 32 32 32 31 30 30 29 29 28 28 27 27 27 27 28 28 29 30 31 32 32 32 33 33 34 34 33 32 30 27 24 24 25 26 26 27 28 29 29 29 30 31 32 32 33 34 35 36 34 32 29 27 25 24 23 23 23 23 22 21 21 22 23 23 23 24 24 24 24 23 21 21 21 21 22 24 27 29 32 34 35 35
33 34 34 34 33 33 33 32 32 31 31 30 29 29 28 28 28 28 28 28 29 31 31 32 33 33 33 33 33 33 33 32 29 27 25 25 25 26 26 27 28 29 29 30 31 31 31 32 32 33 34 35 36 34 31 28 26 24 23 22 22 22 21 21 21 21 21 22 22 23 24 24 23 22 20 20 21 22 25 27 30 33 36 39 40 40
34 34 34 34 33 33 33 33 33 32 32 31 30 30 29 29 28 28 28 28 28 30 31 32 33 33 34 34 34 34 34 32 29 27 26 26 26 26 27 29 29 28 29 30 31 31 31 31 31 31 32 33 35 35 34 31 28 25 23 22 21 20 20 20 20 20 20 21 22 23 24 24 24 23 22 21 22 25 27 30 33 37 40 42 44 45
35 35 34 34 33 33 34 33 33 32 32 32 31 31 30 30 29 28 27 26 26 27 29 31 32 33 34 35 36 36 36 34 33 31 31 30 29 29 30 31 30 30 30 31 31 31 31 30 29 29 30 31 32 33 33 32 30 27 25 23 21 19 19 19 20 20 20 21 22 23 24 24 25 25 24 23 24 26 28 31 34 37 40 43 44 46
34 34 33 33 33 33 33 33 32 32 32 32 32 32 32 31 31 30 28 27 26 26 27 29 31 33 34 35 36 36 37 36 36 36 35 34 33 33 33 33 33 32 32 32 32 32 31 30 29 28 28 30 31 33 33 33 32 30 28 25 23 21 20 20 19 20 20 21 22 23 24 25 26 26 26 25 26 27 29 31 33 35 37 39 40 42
33 33 33 33 32 32 32 32 32 32 32 32 33 33 33 32 32 31 30 29 27 26 26 28 30 32 34 35 35 36 36 36 37 37 36 36 35 35 35 35 35 34 34 34 34 34 34 33 31 29 27 27 29 32 33 33 33 32 31 28 26 24 22 20 19 19 20 21 22 23 24 25 26 27 28 27 27 28 30 31 33 34 34 35 35 35
33 34 34 34 34 33 33 33 32 31 32 32 33 33 33 34 34 34 33 31 29 28 27 27 29 32 34 35 35 36 36 36 36 36 36 36 36 35 35 36 36 36 35 35 35 35 36 36 35 32 30 29 29 30 30 31 32 32 31 30 29 27 24 21 20 20 20 21 22 23 24 25 26 28 29 29 29 30 31 32 33 34 34 34 33 32
35 36 36 36 35 35 35 34 33 32 32 32 32 33 34 34 35 35 34 33 31 29 28 28 30 33 35 35 35 35 35 35 34 34 34 34 34 34 35 36 37 37 36 35 35 36 36 37 37 35 34 33 32 31 31 31 32 32 31 31 31 30 27 24 22 21 21 21 22 23 24 25 27 28 29 30 31 31 31 32 33 34 35 35 35 34
36 36 36 37 37 38 38 38 37 35 34 32 32 33 33 34 34 35 35 33 32 31 31 32 34 36 37 37 35 34 33 32 31 30 30 30 30 30 31 33 34 35 35 35 35 35 36 36 37 37 36 35 34 33 33 33 32 32 32 32 32 30 29 27 25 23 21 20 21 22 23 25 27 29 30 31 32 32 32 32 33 34 35 36 37 37
37 37 37 38 39 40 41 41 40 38 36 34 33 33 33 33 34 34 35 35 35 34 34 35 37 39 39 38 36 34 32 31 30 29 30 29 29 28 28 29 30 31 32 34 35 35 35 35 36 36 37 36 36 35 35 34 33 32 32 32 31 30 30 30 28 24 22 21 20 21 22 24 26 28 30 31 32 32 33 33 34 34 35 36 37 38
40 40 40 40 40 40 39 38 37 35 33 32 32 32 33 32 33 33 34 35 35 35 34 34 35 35 35 34 33 32 31 30 29 29 30 29 29 28 27 28 28 29 29 32 34 34 33 33 34 35 36 35 36 36 37 35 33 32 31 31 30 30 31 31 28 25 23 22 20 19 20 22 24 27 29 31 32 33 34 34 35 35 35 36 36 37
40 41 41 40 39 37 35 34 32 31 31 31 31 32 32 32 32 32 33 33 33 33 32 32 32 31 29 27 25 24 25 26 28 29 29 30 30 29 29 28 28 28 29 30 32 33 33 33 33 33 34 34 35 35 35 34 32 31 30 30 31 32 32 30 28 26 25 23 21 19 18 19 21 24 27 30 32 33 34 34 35 36 36 36 37 37
38 38 38 37 37 36 35 34 32 31 31 32 32 32 32 32 32 32 32 32 32 32 32 33 33 33 32 29 25 24 25 26 28 30 31 33 33 33 32 31 29 29 29 29 30 31 32 33 33 33 33 34 35 34 33 31 30 29 29 30 32 32 32 30 28 26 25 23 21 19 17 17 19 22 25 28 30 32 33 34 34 34 35 36 37 38
37 38 38 37 36 35 35 35 34 33 32 32 32 32 32 32 31 31 32 32 32 32 32 33 34 36 37 35 33 32 31 32 33 34 34 35 36 37 37 35 33 31 30 29 29 29 30 31 33 34 35 35 36 35 33 30 28 28 29 30 32 33 33 32 29 27 24 23 21 19 18 17 18 20 22 25 27 30 32 33 34 33 33 34 35 36
36 37 38 38 37 36 36 35 33 33 32 33 33 33 33 33 32 31 31 32 32 32 32 32 34 36 37 37 37 37 37 37 37 37 37 37 38 39 40 39 37 34 32 30 29 28 28 29 30 33 35 37 37 37 35 32 30 30 30 31 32 33 34 33 30 27 24 23 21 20 18 18 18 19 20 21 23 27 30 33 34 34 33 33 33 34
35 36 36 36 37 37 37 35 33 33 33 34 34 35 34 34 33 32 32 32 32 32 32 32 33 34 35 36 37 38 38 38 38 38 38 37 37 37 38 38 37 36 34 32 31 30 29 29 30 31 33 36 37 38 38 36 34 33 33 33 34 35 35 34 31 28 26 24 22 21 19 19 19 19 18 18 20 23 26 29 32 34 34 34 34 34
35 35 35 36 36 36 36 36 35 34 34 34 34 34 34 34 33 33 33 33 32 32 32 32 32 33 34 35 36 36 36 36 36 36 35 35 34 34 34 34 34 34 34 34 33 32 32 32 32 32 32 33 35 37 38 37 36 35 35 35 35 34 34 33 32 30 28 26 24 23 21 20 20 19 19 19 19 20 22 24 28 32 34 35 36 36
36 36 36 36 36 36 36 36 36 36 35 35 34 34 34 34 34 34 33 32 32 32 32 32 33 33 34 35 35 35 35 35 35 34 34 33 32 32 32 32 32 31 31 30 30 31 31 32 33 33 34 34 34 35 36 36 36 35 34 34 33 32 31 32 32 32 30 29 27 25 24 23 22 21 20 20 20 20 20 22 24 27 30 33 35 36
Wind_Direction
317 317 318 319 319 320 321 324 324 322 319 315 312 307 302 298 295 292 289 287 287 287 288 288 286 282 277 269 261 252 245 240 238 240 243 245 248 250 252 253 255 256 256 255 253 251 249 247 247 248 248 248 247 244 241 238 236 235 235 235 235 235 235 236 237 238 239 240 241 242 242 242 242 242 242 242 242 242 243 244 245 245 244 242 242 243
314 313 313 314 314 313 313 315 318 320 321 319 317 313 308 302 297 292 287 284 282 281 281 282 282 282 281 278 274 269 262 255 249 245 244 245 246 247 249 250 251 252 253 254 255 255 254 252 251 250 250 250 250 249 247 244 240 238 236 235 235 234 234 235 236 236 237 238 239 241 242 242 242 242 242 242 242 243 243 244 245 245 243 241 240 241
316 314 313 312 311 311 311 311 311 313 315 316 316 315 312 309 304 300 295 290 285 281 279 277 277 278 278 278 277 276 273 270 265 260 256 253 251 250 250 251 252 252 253 253 254 255 256 255 254 253 252 251 251 251 250 249 246 242 239 237 236 235 235 235 236 236 237 237 239 240 241 242 242 242 241 241 242 242 243 243 244 243 242 240 239 241
321 319 317 314 312 311 311 310 310 309 309 309 309 309 309 308 307 304 301 297 293 288 283 280 277 275 275 275 275 275 275 274 273 271 268 264 261 258 255 254 254 254 254 255 255 255 256 256 256 255 254 252 251 251 251 251 250 248 245 243 241 240 239 239 239 239 238 238 238 239 241 242 242 242 242 241 241 242 243 243 243 242 242 241 243 245
324 323 322 320 318 315 313 311 310 308 306 305 304 303 304 304 304 303 301 298 296 293 289 285 281 278 275 273 273 272 272 272 272 272 272 271 269 266 263 260 258 256 256 256 256 256 256 257 257 257 256 253 251 251 252 252 252 251 250 248 247 247 246 246 245 244 242 240 239 239 240 242 243 243 243 242 242 243 244 245 244 243 242 243 244 247
322 323 322 322 321 320 317 315 313 311 308 304 301 300 300 300 300 299 299 298 297 296 293 289 286 282 278 276 273 271 270 269 269 269 269 270 270 270 269 267 264 261 259 257 257 256 256 256 256 256 256 255 253 252 253 253 253 253 253 252 252 252 253 252 252 251 249 246 244 243 242 243 244 245 245 244 244 244 246 247 248 246 244 243 243 245
317 318 319 320 320 319 318 318 318 317 314 309 304 300 297 297 296 296 297 297 297 296 294 291 288 285 282 279 276 273 271 270 268 268 267 268 268 269 270 270 269 267 265 262 259 257 256 256 255 255 255 255 254 254 254 254 254 254 255 255 256 256 257 257 257 257 256 254 251 249 248 247 248 248 247 246 246 247 248 250 251 250 248 245 243 243
313 314 315 316 317 317 317 318 319 320 319 316 312 307 302 299 296 295 294 294 294 294 294 292 289 287 284 281 278 276 273 272 270 269 268 267 267 267 268 268 269 269 268 266 263 261 258 257 255 254 254 253 253 253 253 254 254 255 256 257 258 258 259 260 260 261 261 261 259 256 254 252 251 251 250 249 248 249 250 251 252 252 250 247 243 240
311 311 311 312 314 315 315 315 316 318 319 319 318 316 313 308 302 297 294 292 292 293 293 292 290 288 285 283 280 278 275 274 272 271 270 269 268 267 266 266 266 267 267 267 265 263 261 259 258 256 255 254 253 253 253 253 254 255 257 258 259 259 260 260 261 263 264 265 264 262 259 257 255 254 253 252 250 249 249 250 251 251 249 245 240 237
307 308 308 309 310 311 313 313 314 315 317 318 319 318 318 316 312 306 300 295 292 291 291 292 292 291 288 285 283 281 279 276 274 273 272 271 270 268 267 266 265 265 265 266 266 265 263 262 260 258 257 255 254 253 253 253 253 254 256 257 259 260 260 260 261 262 264 265 266 266 264 261 259 258 258 256 253 249 247 247 247 247 245 241 237 234
304 305 305 306 306 307 309 310 311 312 313 315 316 316 316 317 317 314 309 302 297 294 293 292 293 293 292 290 288 286 284 281 278 274 273 271 271 270 268 267 266 265 264 264 264 265 264 263 262 260 259 257 255 254 253 253 253 254 254 256 257 258 259 259 260 260 262 264 266 267 267 265 263 263 262 261 257 253 248 245 243 242 240 237 234 233
301 302 302 303 303 304 305 306 307 309 310 312 314 315 315 315 316 315 312 309 306 302 299 296 293 292 293 293 292 290 289 287 283 279 275 273 271 270 269 268 267 265 264 263 263 263 264 264 263 262 261 259 257 256 255 254 254 254 254 255 255 256 257 258 258 258 259 261 263 266 268 267 266 265 264 263 261 257 252 247 243 240 237 235 233 234
299 299 299 299 300 301 302 303 304 305 307 309 312 313 313 312 312 312 312 310 309 308 305 301 296 292 290 291 293 293 293 291 287 284 280 277 274 272 271 269 268 266 265 264 262 262 262 262 263 263 262 261 260 259 258 257 256 256 255 255 255 256 256 257 257 257 257 258 260 263 265 266 265 264 264 262 261 258 255 251 246 243 239 236 235 236
299 298 297 296 296 297 299 300 302 303 304 305 307 308 308 309 309 310 310 310 309 309 308 305 300 295 291 291 292 294 294 293 291 288 285 281 279 277 274 272 269 268 266 265 264 262 262 261 261 261 261 261 261 261 260 259 258 258 257 256 256 255 255 256 256 256 256 256 257 259 261 262 262 261 260 259 258 257 255 252 249 245 242 239 237 237
301 300 297 295 295 295 296 298 299 299 299 300 302 303 304 305 306 308 308 308 309 309 309 307 303 299 295 293 293 294 294 295 294 292 289 286 283 282 281 277 274 270 268 267 265 264 263 262 261 261 260 260 260 260 260 260 259 258 257 255 254 253 253 253 253 253 254 254 255 255 256 257 257 256 256 256 255 255 254 252 249 247 244 241 239 239
301 299 297 296 295 295 295 295 296 296 296 297 298 299 301 303 304 305 306 306 307 308 308 307 306 303 299 295 294 294 295 295 295 294 292 289 287 286 286 284 280 276 272 269 267 266 265 264 263 262 261 260 260 259 259 259 258 257 256 255 253 251 250 248 248 248 248 248 249 249 249 250 250 251 251 252 252 252 252 251 250 248 246 244 242 241
298 297 295 295 295 295 295 294 294 293 294 294 295 296 297 298 300 301 302 302 303 303 303 303 303 303 302 300 297 296 296 296 295 294 293 290 288 287 288 288 286 282 277 273 270 268 267 265 265 264 263 261 260 260 259 258 258 257 256 256 254 253 251 249 247 245 244 244 243 244 244 244 245 246 247 249 250 251 251 251 251 250 249 247 245 244
295 294 294 293 293 294 295 295 293 293 293 293 293 294 294 294 294 295 295 295 296 296 296 297 297 297 297 299 298 297 298 299 297 295 293 290 288 287 289 290 289 286 283 278 275 272 270 268 266 265 264 262 261 260 259 258 257 257 256 256 255 255 254 253 251 250 248 246 245 244 244 244 244 244 245 246 247 249 250 250 251 251 251 250 249 248
292 292 291 290 291 293 294 293 293 293 293 293 293 293 293 291 290 290 289 289 290 291 292 293 293 292 292 294 295 298 300 300 298 295 294 291 289 288 288 290 290 289 287 284 281 278 275 271 268 266 264 263 262 261 260 259 257 256 256 255 255 255 254 254 254 253 252 251 249 247 246 245 245 244 244 245 246 247 248 249 250 250 251 251 250 250
290 289 288 289 290 291 290 290 291 292 293 293 292 291 290 289 289 288 287 288 288 289 290 291 291 290 290 292 295 298 300 301 299 296 294 292 290 289 289 290 291 290 289 287 285 284 281 277 272 269 266 264 263 262 260 259 258 257 256 255 254 254 254 253 253 253 252 252 251 250 249 248 247 246 245 245 245 245 246 247 248 249 249 250 250 249
285 286 287 289 289 288 287 288 290 292 292 291 289 288 287 287 288 287 287 288 289 290 290 289 288 288 289 290 292 293 295 297 296 295 294 293 291 289 289 290 291 290 289 288 287 287 286 283 278 273 269 266 264 262 261 260 259 257 256 255 255 254 254 253 253 253 252 252 252 251 251 250 249 248 247 246 246 246 246 246 247 247 248 248 249 249
281 283 286 288 287 286 286 289 290 291 289 288 286 285 285 287 287 287 288 288 289 289 288 286 285 284 285 284 284 284 286 286 287 288 291 292 290 289 288 289 289 289 288 288 288 289 289 287 284 279 274 270 267 264 262 261 260 258 257 256 255 255 254 254 253 253 253 253 252 252 252 252 251 251 250 249 248 247 247 247 247 248 248 248 248 249
285 285 286 286 285 285 287 289 289 289 287 285 283 282 284 284 284 285 286 286 286 285 285 284 283 282 282 280 280 280 280 280 281 283 286 286 287 287 289 290 289 288 287 287 287 288 289 288 286 283 279 275 270 267 265 263 261 260 259 257 256 255 255 254 254 254 254 253 253 253 253 253 252 252 252 251 250 249 248 248 248 248 248 248 248 249
293 291 288 285 284 284 285 286 287 287 286 284 282 281 281 280 280 280 281 282 283 283 283 283 283 282 280 280 280 281 281 281 281 282 283 282 284 286 289 289 289 288 286 286 286 287 288 287 287 285 283 279 275 271 268 266 264 262 260 259 257 256 255 255 254 254 254 254 254 253 253 253 253 253 252 252 251 250 249 248 247 247 247 247 247 247
296 293 290 287 285 282 281 282 283 283 283 281 279 278 277 277 277 278 279 280 280 281 281 281 281 281 281 282 283 283 283 284 284 284 283 282 284 286 288 288 288 287 286 285 285 286 286 286 285 285 284 281 278 275 271 269 266 264 262 260 258 257 256 255 254 254 254 254 254 254 253 253 253 252 252 251 250 249 248 247 246 246 246 246 246 246
294 292 290 288 285 282 279 279 278 278 277 276 276 275 276 277 278 279 279 279 279 280 281 281 281 281 282 284 284 284 285 286 287 286 284 283 284 286 287 287 286 286 287 286 286 285 284 284 283 283 283 282 280 278 275 271 268 266 264 262 260 258 256 255 254 254 254 254 254 254 254 253 253 252 251 251 250 248 247 246 246 245 245 245 245 246
289 287 285 283 281 280 278 277 276 274 272 272 272 273 275 277 278 279 278 278 279 281 281 280 280 281 283 283 283 283 285 286 286 285 283 282 282 283 283 285 286 287 288 288 287 285 283 282 282 281 281 281 281 279 277 273 270 268 266 263 261 259 257 256 254 254 254 254 254 254 254 253 253 252 251 250 249 247 246 245 244 244 245 245 245 246
284 280 278 276 276 276 276 275 274 273 271 270 270 271 272 273 274 274 275 277 279 280 278 276 276 278 280 281 281 283 284 284 282 281 280 280 278 278 280 283 285 287 288 288 288 286 283 281 280 280 280 280 280 279 277 275 273 270 268 266 264 262 259 257 255 254 253 253 253 253 253 253 253 252 250 249 247 245 243 242 241 242 242 243 244 244
282 278 275 273 272 271 271 270 270 270 270 269 269 268 268 268 269 271 273 277 278 277 275 273 272 273 276 278 280 282 282 280 280 279 280 279 277 276 278 281 284 286 287 289 289 288 285 282 281 280 279 279 278 278 278 276 275 273 270 268 266 264 262 259 257 255 253 253 252 253 252 252 252 251 249 247 244 242 239 237 237 237 238 239 240 241
284 282 278 275 273 270 268 266 265 266 267 267 266 265 264 264 266 270 273 275 275 273 271 270 270 270 272 275 278 279 279 278 279 281 282 279 276 275 278 281 283 285 286 287 288 288 287 285 284 282 280 279 278 278 278 278 277 275 273 270 268 266 264 261 258 256 254 252 252 251 251 250 250 249 247 244 241 238 234 232 231 232 233 234 236 237
289 287 284 281 278 275 272 269 267 265 265 264 263 262 261 261 263 267 270 270 270 269 268 268 268 268 268 269 270 271 273 276 279 280 279 276 274 275 278 280 282 283 282 282 282 283 285 286 286 284 282 280 279 279 279 279 278 277 275 272 269 267 264 262 260 257 254 252 251 250 249 248 247 246 244 242 238 234 231 229 228 229 230 232 234 236
293 292 290 288 286 283 280 276 273 270 267 265 263 261 260 259 260 262 264 265 266 266 267 267 267 267 265 264 264 264 268 272 275 275 272 270 271 274 277 278 280 280 279 279 276 275 277 280 282 283 282 281 280 279 278 279 279 279 277 274 271 267 265 263 260 257 255 252 250 248 246 245 244 243 242 240 237 234 231 230 230 231 233 234 236 237
292 292 291 290 289 287 285 282 279 276 273 269 266 264 261 259 258 258 259 260 261 263 264 265 265 265 265 264 264 264 267 270 273 273 271 267 269 272 274 275 276 277 277 276 274 273 272 275 279 281 282 282 280 279 278 278 279 280 279 276 272 268 265 263 260 258 255 252 250 247 244 242 241 241 241 241 240 239 238 237 237 237 237 238 238 238
286 286 286 286 286 285 284 283 282 280 277 274 271 268 265 262 260 258 257 257 257 258 260 262 263 264 264 264 264 265 267 269 272 274 272 269 268 269 272 273 274 275 275 273 271 270 271 273 276 280 282 283 282 279 277 277 278 279 279 277 274 270 267 263 261 258 256 253 250 247 243 241 239 238 240 243 246 247 247 245 242 239 238 237 237 237
282 281 282 282 283 283 283 282 281 280 279 276 274 272 269 267 264 262 260 258 256 256 256 258 260 261 263 264 264 265 266 268 270 272 270 268 267 268 270 271 272 274 274 272 269 267 267 270 273 276 280 283 283 281 278 276 277 278 279 278 275 272 268 264 261 259 256 254 250 247 244 240 238 237 239 244 249 251 249 245 239 235 232 231 231 231
281 281 281 281 281 281 281 281 280 280 278 277 276 275 273 271 269 267 265 263 260 258 256 255 256 258 260 261 263 265 265 266 267 266 265 264 264 265 267 268 269 270 272 272 270 266 264 265 268 272 276 279 281 281 279 277 277 277 277 277 276 274 270 265 262 259 256 253 250 248 244 241 238 237 238 242 247 247 244 238 231 227 224 223 223 223
279 279 279 280 280 280 280 280 279 279 278 278 277 277 275 274 273 271 270 269 267 264 261 259 257 257 257 258 260 262 263 264 264 263 262 263 263 264 265 265 265 265 266 269 271 270 266 263 263 266 270 273 275 278 280 280 279 277 275 276 276 275 271 266 262 258 255 252 250 247 245 242 239 238 238 241 243 243 238 232 225 220 217 216 215 215
277 277 277 277 277 278 279 279 279 279 279 279 278 278 278 277 275 274 274 274 272 270 267 265 263 261 260 259 259 260 261 262 262 263 263 265 266 266 266 266 265 263 261 261 266 271 271 266 263 262 265 269 272 276 279 282 281 279 277 277 275 273 270 267 264 260 255 252 249 247 245 243 241 239 239 240 241 240 236 229 223 219 216 214 214 213
274 274 274 274 275 275 276 277 278 279 279 280 280 280 280 279 279 278 277 275 273 270 269 268 266 265 264 263 262 261 261 262 262 263 264 266 267 268 269 269 269 267 263 259 260 265 270 271 267 263 263 266 270 274 278 280 280 281 281 280 276 271 268 268 266 262 257 253 249 246 245 244 242 241 240 240 240 240 236 230 224 220 216 215 214 215
272 272 272 272 273 274 275 275 276 277 278 279 280 280 281 281 281 280 278 275 270 267 267 268 268 267 265 264 263 262 262 262 263 263 264 265 266 267 269 270 270 270 268 264 260 259 264 269 271 269 266 264 266 268 272 275 278 280 283 283 280 275 271 270 267 262 257 253 249 246 245 244 243 243 242 241 240 240 238 234 228 222 218 215 213 213
271 271 271 272 273 275 275 276 277 277 277 277 278 278 279 280 280 280 278 275 271 268 269 272 273 271 267 263 261 261 261 262 263 264 264 264 265 265 266 268 269 270 270 268 264 260 259 263 268 271 270 267 265 265 266 270 274 278 280 280 280 279 278 273 267 261 257 254 250 246 244 243 243 243 243 243 242 241 240 238 234 229 224 220 218 217
271 270 270 271 273 275 276 278 279 279 277 276 275 275 276 277 278 279 279 277 275 274 277 279 278 275 269 264 260 259 261 263 266 268 269 269 268 267 267 267 267 268 268 268 266 263 260 259 262 266 269 269 267 264 264 266 270 273 276 277 280 282 282 276 268 261 259 256 253 249 245 243 242 242 243 243 243 242 241 241 240 237 233 229 227 226
271 271 271 271 272 274 275 276 276 275 275 275 274 273 273 274 274 275 277 277 277 278 279 280 279 276 269 263 259 258 260 264 268 271 273 273 272 271 270 269 268 268 267 267 266 265 263 260 258 260 263 266 267 266 264 262 264 267 271 274 277 280 281 278 273 267 262 258 256 252 248 244 242 241 241 241 242 242 242 243 243 242 240 237 235 235
273 273 274 274 274 273 271 269 268 268 269 269 271 272 272 273 273 274 274 275 276 276 277 277 277 273 265 259 255 255 257 260 264 268 271 274 275 274 273 271 269 268 267 266 265 264 263 261 259 257 258 261 264 264 262 259 258 260 265 270 273 275 276 278 277 272 264 259 256 255 252 248 245 242 240 239 239 239 240 242 243 244 243 242 241 240
274 275 275 275 275 273 271 269 267 267 267 268 269 270 272 273 274 274 274 274 274 274 273 273 274 273 269 264 260 259 260 260 262 265 269 273 276 277 276 274 272 269 268 266 265 264 262 260 258 257 257 258 261 262 260 256 254 255 261 267 271 274 276 278 277 272 264 259 257 258 257 254 249 245 241 238 236 235 236 237 239 241 243 244 244 244
272 272 272 273 273 273 273 273 272 272 271 271 270 271 272 272 273 273 272 272 272 271 270 269 270 273 275 277 277 277 276 273 270 269 270 272 274 276 277 277 275 272 269 267 266 265 264 261 258 255 254 255 257 260 260 256 253 254 260 266 270 273 275 276 274 269 263 259 258 258 260 258 254 248 244 240 236 233 232 232 233 235 238 241 243 244
271 271 271 271 271 271 271 272 272 272 272 271 271 270 270 270 270 270 269 269 268 268 267 266 266 269 272 276 279 281 282 280 277 275 274 273 273 274 275 276 276 275 272 269 267 267 266 264 260 256 252 252 254 257 259 259 258 259 262 266 269 271 272 273 271 268 264 260 257 258 259 260 257 253 249 245 240 236 233 231 230 230 231 234 238 241
271 272 272 272 272 271 271 271 271 270 270 270 270 270 269 269 268 267 267 266 266 265 264 264 264 265 268 271 274 277 278 278 277 276 275 274 273 272 273 275 276 277 276 273 271 269 269 267 264 258 253 250 250 253 257 260 262 263 264 266 267 269 270 271 271 269 265 261 258 257 258 258 258 258 256 253 247 241 237 233 230 228 227 228 231 235
270 271 271 271 271 272 272 271 271 271 270 271 271 270 269 269 267 266 266 266 265 263 262 262 263 264 266 269 271 273 275 275 276 276 275 274 272 271 272 273 275 277 277 276 275 274 273 271 268 262 256 251 249 250 253 256 260 263 264 264 264 264 266 268 269 269 266 263 260 258 258 257 258 260 261 259 255 249 243 238 234 231 229 228 228 230
266 267 268 269 269 269 271 272 271 271 271 271 270 270 270 269 268 267 266 265 263 262 261 262 263 264 266 268 270 271 272 273 274 274 275 274 273 271 271 271 273 274 275 275 276 276 275 273 270 266 261 255 251 249 249 252 256 259 261 260 258 258 261 264 266 267 266 264 262 261 259 259 259 260 261 260 258 255 251 245 240 236 233 231 230 230
264 265 265 265 266 267 268 270 270 270 270 270 270 270 270 270 270 269 266 263 261 260 260 262 263 264 265 267 269 270 270 271 272 273 274 275 275 273 272 271 270 270 269 270 271 271 271 269 267 264 262 257 252 248 247 248 251 254 256 254 252 252 255 259 263 265 265 264 263 262 260 259 258 258 258 258 258 257 255 251 246 241 238 235 233 233